Station History

Weather Underground - logo

Station Historical Data
Daily Summary for October 15, 2017 Units:  English    Metric   Both
« Previous Day
Next Day »
Daily Weekly Monthly Yearly Custom
  High: Low: Average:
Temperature: TemperatureF °F 45.4 °F 61.8 °F
Dew Point: DewpointF °F 41.9 °F 45.9 °F
Humidity: Humidity % 26 % 61 %
Wind Speed: WindSpeedMPH mph 0.0 mph 0.6 mph
Wind Gust: WindSpeedGustMPH mph - -
Wind:- - West
Pressure: PressureIn in 30.05 in -
Precipitation: 0.00 in    
Historical Graphs
 
 
Tabular Data for October 15, 2017
Time Temperature Dew Point Pressure Wind Wind Speed Wind Gust Humidity Rainfall Rate (Hourly)
TemperatureF °F DewpointF °F PressureIn in Calm     Humidity % HourlyPrecipIn in
00:03 51.7 °F 46.1 °F 30.11 in Calm     81 % 0.00 in
00:08 51.6 °F 46.3 °F 30.11 in Calm     82 % 0.00 in
00:13 51.6 °F 46.3 °F 30.11 in Calm     82 % 0.00 in
00:18 51.4 °F 46.1 °F 30.11 in Calm     82 % 0.00 in
00:23 51.4 °F 46.4 °F 30.11 in Calm     83 % 0.00 in
00:28 51.4 °F 46.4 °F 30.11 in Calm     83 % 0.00 in
00:33 51.6 °F 46.6 °F 30.11 in Calm     83 % 0.00 in
00:38 51.8 °F 46.2 °F 30.11 in Calm     81 % 0.00 in
00:43 52.1 °F 45.8 °F 30.11 in Calm     79 % 0.00 in
00:48 52.2 °F 45.2 °F 30.11 in Calm     77 % 0.00 in
00:53 52.2 °F 45.2 °F 30.11 in Calm     77 % 0.00 in
00:58 52.2 °F 44.5 °F 30.11 in Calm     75 % 0.00 in
01:03 52.4 °F 44.4 °F 30.11 in Calm     74 % 0.00 in
01:08 52.5 °F 44.4 °F 30.11 in Calm     74 % 0.00 in
01:13 52.6 °F 44.2 °F 30.11 in Calm     73 % 0.00 in
01:18 52.6 °F 44.2 °F 30.11 in Calm     73 % 0.00 in
01:23 52.5 °F 44.4 °F 30.11 in Calm     74 % 0.00 in
01:28 52.2 °F 44.9 °F 30.11 in Calm     76 % 0.00 in
01:33 51.9 °F 45.3 °F 30.11 in Calm     78 % 0.00 in
01:38 51.8 °F 44.8 °F 30.11 in Calm     77 % 0.00 in
01:43 51.9 °F 44.6 °F 30.11 in WSW 1.2 mph   76 % 0.00 in
01:48 51.9 °F 44.6 °F 30.10 in Calm     76 % 0.00 in
01:53 51.7 °F 44.4 °F 30.10 in Calm     76 % 0.00 in
01:58 51.5 °F 44.2 °F 30.10 in Calm     76 % 0.00 in
02:03 51.2 °F 44.2 °F 30.10 in Calm     77 % 0.00 in
02:08 51.0 °F 44.7 °F 30.10 in Calm     79 % 0.00 in
02:13 51.1 °F 44.5 °F 30.10 in Calm     78 % 0.00 in
02:18 51.4 °F 44.1 °F 30.10 in WSW 1.2 mph   76 % 0.00 in
02:23 51.6 °F 44.6 °F 30.10 in Calm     77 % 0.00 in
02:28 51.5 °F 44.9 °F 30.10 in Calm     78 % 0.00 in
02:33 51.0 °F 45.0 °F 30.10 in Calm     80 % 0.00 in
02:38 50.3 °F 44.7 °F 30.10 in Calm     81 % 0.00 in
02:43 49.9 °F 44.9 °F 30.10 in Calm     83 % 0.00 in
02:48 49.5 °F 44.2 °F 30.10 in Calm     82 % 0.00 in
02:53 49.0 °F 43.7 °F 30.10 in Calm     82 % 0.00 in
02:58 48.6 °F 43.4 °F 30.10 in Calm     82 % 0.00 in
03:03 48.2 °F 43.0 °F 30.10 in Calm     82 % 0.00 in
03:08 47.9 °F 43.0 °F 30.10 in Calm     83 % 0.00 in
03:13 47.7 °F 42.8 °F 30.10 in Calm     83 % 0.00 in
03:18 47.6 °F 42.7 °F 30.10 in Calm     83 % 0.00 in
03:23 47.5 °F 42.9 °F 30.10 in Calm     84 % 0.00 in
03:28 47.3 °F 42.4 °F 30.10 in Calm     83 % 0.00 in
03:34 47.2 °F 42.6 °F 30.10 in Calm     84 % 0.00 in
03:39 47.1 °F 42.5 °F 30.10 in Calm     84 % 0.00 in
03:44 47.0 °F 42.4 °F 30.10 in Calm     84 % 0.00 in
03:49 46.9 °F 42.3 °F 30.10 in Calm     84 % 0.00 in
03:50 46.8 °F 42.2 °F 30.10 in Calm     84 % 0.00 in
03:55 46.7 °F 42.4 °F 30.10 in Calm     85 % 0.00 in
04:00 46.6 °F 42.3 °F 30.11 in Calm     85 % 0.00 in
04:05 46.5 °F 42.5 °F 30.11 in Calm     86 % 0.00 in
04:10 46.3 °F 42.3 °F 30.11 in Calm     86 % 0.00 in
04:13 46.3 °F 42.6 °F 30.11 in Calm     87 % 0.00 in
04:18 46.4 °F 42.7 °F 30.11 in Calm     87 % 0.00 in
04:23 46.4 °F 42.4 °F 30.11 in Calm     86 % 0.00 in
04:28 46.3 °F 42.3 °F 30.11 in Calm     86 % 0.00 in
04:33 46.2 °F 42.5 °F 30.11 in Calm     87 % 0.00 in
04:38 46.4 °F 42.4 °F 30.11 in Calm     86 % 0.00 in
04:43 46.5 °F 42.8 °F 30.11 in Calm     87 % 0.00 in
04:48 46.4 °F 42.7 °F 30.11 in Calm     87 % 0.00 in
04:53 46.3 °F 42.6 °F 30.12 in Calm     87 % 0.00 in
04:58 46.3 °F 42.6 °F 30.12 in Calm     87 % 0.00 in
05:03 46.1 °F 42.4 °F 30.12 in Calm     87 % 0.00 in
05:08 46.3 °F 42.9 °F 30.12 in Calm     88 % 0.00 in
05:13 46.3 °F 42.9 °F 30.12 in Calm     88 % 0.00 in
05:18 46.5 °F 43.1 °F 30.12 in Calm     88 % 0.00 in
05:23 46.6 °F 42.9 °F 30.12 in Calm     87 % 0.00 in
05:28 46.7 °F 43.6 °F 30.12 in Calm     89 % 0.00 in
05:33 46.6 °F 42.9 °F 30.12 in Calm     87 % 0.00 in
05:38 46.6 °F 42.9 °F 30.12 in Calm     87 % 0.00 in
05:42 46.5 °F 42.8 °F 30.12 in Calm     87 % 0.00 in
05:47 46.4 °F 43.0 °F 30.12 in Calm     88 % 0.00 in
05:52 46.4 °F 43.0 °F 30.12 in Calm     88 % 0.00 in
05:57 46.2 °F 42.8 °F 30.12 in Calm     88 % 0.00 in
06:02 46.0 °F 42.6 °F 30.12 in Calm     88 % 0.00 in
06:07 45.9 °F 42.8 °F 30.12 in Calm     89 % 0.00 in
06:12 46.1 °F 43.3 °F 30.12 in Calm     90 % 0.00 in
06:18 46.1 °F 43.0 °F 30.13 in Calm     89 % 0.00 in
06:23 46.0 °F 42.9 °F 30.13 in Calm     89 % 0.00 in
06:28 46.2 °F 43.4 °F 30.13 in Calm     90 % 0.00 in
06:33 46.3 °F 43.2 °F 30.13 in Calm     89 % 0.00 in
06:38 46.3 °F 43.2 °F 30.13 in Calm     89 % 0.00 in
06:43 46.2 °F 43.1 °F 30.13 in Calm     89 % 0.00 in
06:48 46.1 °F 43.0 °F 30.13 in Calm     89 % 0.00 in
06:53 45.6 °F 42.0 °F 30.13 in Calm     87 % 0.00 in
06:58 45.4 °F 42.3 °F 30.14 in Calm     89 % 0.00 in
07:03 45.6 °F 42.8 °F 30.14 in Calm     90 % 0.00 in
07:08 45.7 °F 42.6 °F 30.14 in Calm     89 % 0.00 in
07:13 45.7 °F 42.6 °F 30.14 in Calm     89 % 0.00 in
07:18 45.7 °F 42.6 °F 30.14 in Calm     89 % 0.00 in
07:23 45.6 °F 42.5 °F 30.14 in Calm     89 % 0.00 in
07:28 45.5 °F 42.4 °F 30.14 in Calm     89 % 0.00 in
07:33 45.5 °F 42.7 °F 30.14 in Calm     90 % 0.00 in
07:38 45.7 °F 42.6 °F 30.14 in Calm     89 % 0.00 in
07:43 45.9 °F 42.8 °F 30.15 in Calm     89 % 0.00 in
07:48 46.4 °F 43.0 °F 30.15 in Calm     88 % 0.00 in
07:53 46.8 °F 42.8 °F 30.15 in Calm     86 % 0.00 in
07:58 47.1 °F 43.1 °F 30.15 in Calm     86 % 0.00 in
08:03 47.5 °F 43.2 °F 30.16 in Calm     85 % 0.00 in
08:08 48.2 °F 43.6 °F 30.16 in Calm     84 % 0.00 in
08:13 49.1 °F 44.5 °F 30.16 in Calm     84 % 0.00 in
08:18 50.2 °F 45.6 °F 30.16 in Calm     84 % 0.00 in
08:23 51.4 °F 45.8 °F 30.16 in Calm     81 % 0.00 in
08:28 52.3 °F 46.0 °F 30.16 in Calm     79 % 0.00 in
08:33 53.6 °F 46.2 °F 30.16 in Calm     76 % 0.00 in
08:38 55.0 °F 45.8 °F 30.17 in Calm     71 % 0.00 in
08:39 55.3 °F 45.7 °F 30.17 in Calm     70 % 0.00 in
08:44 55.8 °F 45.8 °F 30.17 in Calm     69 % 0.00 in
08:50 56.2 °F 45.8 °F 30.17 in Calm     68 % 0.00 in
08:55 56.6 °F 45.8 °F 30.17 in Calm     67 % 0.00 in
09:00 57.8 °F 46.9 °F 30.17 in West 1.2 mph 1.2 mph 67 % 0.00 in
09:05 58.8 °F 46.6 °F 30.17 in Calm     64 % 0.00 in
09:10 59.4 °F 46.4 °F 30.17 in Calm     62 % 0.00 in
09:15 60.3 °F 46.8 °F 30.17 in Calm     61 % 0.00 in
09:20 61.2 °F 47.6 °F 30.17 in Calm     61 % 0.00 in
09:25 61.8 °F 46.4 °F 30.17 in SW 1.2 mph 1.2 mph 57 % 0.00 in
09:30 61.8 °F 45.9 °F 30.17 in Calm     56 % 0.00 in
09:35 62.5 °F 45.6 °F 30.17 in Calm     54 % 0.00 in
09:40 63.0 °F 46.1 °F 30.17 in East 1.2 mph 1.2 mph 54 % 0.00 in
09:45 63.6 °F 46.1 °F 30.17 in Calm     53 % 0.00 in
09:50 64.2 °F 46.2 °F 30.17 in Calm     52 % 0.00 in
09:55 64.9 °F 45.8 °F 30.17 in Calm     50 % 0.00 in
10:00 65.1 °F 43.8 °F 30.17 in ESE 1.2 mph 1.2 mph 46 % 0.00 in
10:05 65.6 °F 45.9 °F 30.17 in ESE 1.2 mph   49 % 0.00 in
10:10 66.6 °F 44.6 °F 30.17 in ESE 1.2 mph 1.2 mph 45 % 0.00 in
10:15 67.5 °F 44.8 °F 30.17 in SE 1.2 mph 1.2 mph 44 % 0.00 in
10:20 67.7 °F 44.4 °F 30.16 in SSE 1.2 mph   43 % 0.00 in
10:25 68.1 °F 43.5 °F 30.16 in WNW 1.2 mph 1.2 mph 41 % 0.00 in
10:30 67.8 °F 41.9 °F 30.16 in Calm     39 % 0.00 in
10:35 68.3 °F 43.0 °F 30.16 in Calm   0.1 mph 40 % 0.00 in
10:40 68.6 °F 42.6 °F 30.16 in Calm     39 % 0.00 in
10:45 68.9 °F 42.2 °F 30.16 in West 1.2 mph   38 % 0.00 in
10:50 69.5 °F 42.8 °F 30.16 in NNE 1.2 mph 1.2 mph 38 % 0.00 in
10:55 69.8 °F 43.7 °F 30.16 in NW 1.2 mph 1.2 mph 39 % 0.00 in
11:00 70.2 °F 43.4 °F 30.16 in Calm     38 % 0.00 in
11:05 70.5 °F 43.7 °F 30.16 in WNW 2.3 mph 2.3 mph 38 % 0.00 in
11:10 70.8 °F 45.9 °F 30.16 in NW 2.3 mph 2.3 mph 41 % 0.00 in
11:15 71.5 °F 45.9 °F 30.15 in NW 2.3 mph 2.3 mph 40 % 0.00 in
11:20 72.1 °F 47.1 °F 30.15 in West 1.2 mph   41 % 0.00 in
11:21 72.2 °F 47.2 °F 30.16 in WNW 1.2 mph   41 % 0.00 in
11:26 72.6 °F 47.5 °F 30.15 in NW 1.2 mph 1.2 mph 41 % 0.00 in
11:31 72.6 °F 46.2 °F 30.15 in North 2.3 mph 2.3 mph 39 % 0.00 in
11:36 73.1 °F 48.0 °F 30.15 in NW 2.3 mph 2.3 mph 41 % 0.00 in
11:41 73.5 °F 47.0 °F 30.15 in NNW 1.2 mph 1.2 mph 39 % 0.00 in
11:46 73.9 °F 47.4 °F 30.15 in NW 2.3 mph 2.3 mph 39 % 0.00 in
11:51 74.1 °F 46.9 °F 30.15 in NNW 1.2 mph 1.2 mph 38 % 0.00 in
11:56 74.6 °F 46.6 °F 30.15 in Calm     37 % 0.00 in
12:01 74.8 °F 46.8 °F 30.14 in West 3.0 mph 3.0 mph 37 % 0.00 in
12:06 75.1 °F 47.0 °F 30.14 in NW 2.3 mph 2.3 mph 37 % 0.00 in
12:11 75.1 °F 48.4 °F 30.14 in ESE 2.3 mph 2.3 mph 39 % 0.00 in
12:16 75.7 °F 48.3 °F 30.14 in WNW 2.3 mph 2.3 mph 38 % 0.00 in
12:21 75.8 °F 46.9 °F 30.14 in WNW 1.2 mph 1.2 mph 36 % 0.00 in
12:26 76.2 °F 46.5 °F 30.14 in NW 3.5 mph 3.5 mph 35 % 0.00 in
12:31 76.4 °F 48.2 °F 30.14 in North 1.2 mph 1.2 mph 37 % 0.00 in
12:36 76.8 °F 47.1 °F 30.14 in Calm     35 % 0.00 in
12:41 77.2 °F 47.4 °F 30.13 in NNW 2.3 mph 2.3 mph 35 % 0.00 in
12:46 77.7 °F 47.9 °F 30.13 in Calm     35 % 0.00 in
12:51 78.0 °F 45.7 °F 30.13 in NW 2.3 mph   32 % 0.00 in
12:56 78.2 °F 45.1 °F 30.13 in WSW 2.3 mph 2.3 mph 31 % 0.00 in
13:01 78.5 °F 46.2 °F 30.12 in West 3.5 mph 3.5 mph 32 % 0.00 in
13:06 79.1 °F 47.5 °F 30.12 in Calm     33 % 0.00 in
13:11 79.0 °F 46.6 °F 30.12 in NW 2.3 mph 2.3 mph 32 % 0.00 in
13:16 78.9 °F 46.5 °F 30.12 in West 1.2 mph 1.2 mph 32 % 0.00 in
13:21 79.2 °F 45.9 °F 30.12 in North 2.3 mph 2.3 mph 31 % 0.00 in
13:26 79.4 °F 45.3 °F 30.11 in NNW 3.5 mph 3.5 mph 30 % 0.00 in
13:31 79.4 °F 46.1 °F 30.11 in NW 1.2 mph 1.2 mph 31 % 0.00 in
13:36 79.6 °F 45.4 °F 30.11 in NW 3.5 mph 3.5 mph 30 % 0.00 in
13:41 79.6 °F 45.4 °F 30.11 in NW 1.2 mph 1.2 mph 30 % 0.00 in
13:46 79.9 °F 45.7 °F 30.10 in NW 2.3 mph 2.3 mph 30 % 0.00 in
13:51 79.9 °F 45.7 °F 30.10 in ENE 2.3 mph 2.3 mph 30 % 0.00 in
13:57 80.4 °F 47.8 °F 30.10 in West 2.3 mph   32 % 0.00 in
14:02 80.7 °F 47.2 °F 30.09 in NW 2.3 mph   31 % 0.00 in
14:07 81.3 °F 47.8 °F 30.09 in Calm     31 % 0.00 in
14:12 81.5 °F 46.2 °F 30.09 in NW 2.3 mph 2.3 mph 29 % 0.00 in
14:17 81.4 °F 45.2 °F 30.09 in WNW 3.5 mph 3.5 mph 28 % 0.00 in
14:22 81.3 °F 44.1 °F 30.09 in North 2.3 mph 2.3 mph 27 % 0.00 in
14:27 81.3 °F 47.8 °F 30.09 in NW 2.3 mph 2.3 mph 31 % 0.00 in
14:32 81.3 °F 46.0 °F 30.08 in WSW 3.5 mph 3.5 mph 29 % 0.00 in
14:38 81.1 °F 44.9 °F 30.08 in WNW 2.3 mph   28 % 0.00 in
14:43 81.2 °F 45.0 °F 30.08 in NW 2.3 mph 2.3 mph 28 % 0.00 in
14:48 81.5 °F 45.2 °F 30.08 in NNW 2.3 mph 2.3 mph 28 % 0.00 in
14:53 81.3 °F 43.1 °F 30.08 in NW 2.3 mph 2.3 mph 26 % 0.00 in
14:58 81.4 °F 46.1 °F 30.08 in NW 2.3 mph 2.3 mph 29 % 0.00 in
15:03 81.4 °F 45.2 °F 30.07 in WNW 3.5 mph 3.5 mph 28 % 0.00 in
15:08 81.4 °F 46.1 °F 30.07 in NW 1.2 mph 1.2 mph 29 % 0.00 in
15:13 81.6 °F 48.0 °F 30.07 in WNW 2.3 mph 2.3 mph 31 % 0.00 in
15:18 81.7 °F 46.3 °F 30.07 in NW 3.5 mph 3.5 mph 29 % 0.00 in
15:23 81.7 °F 46.3 °F 30.07 in NNW 2.3 mph 2.3 mph 29 % 0.00 in
15:28 82.0 °F 48.4 °F 30.07 in NW 1.2 mph 1.2 mph 31 % 0.00 in
15:33 82.0 °F 46.6 °F 30.07 in WNW 1.2 mph 1.2 mph 29 % 0.00 in
15:38 82.1 °F 47.6 °F 30.07 in SW 1.2 mph 1.2 mph 30 % 0.00 in
15:43 82.2 °F 47.7 °F 30.07 in NNW 2.3 mph 2.3 mph 30 % 0.00 in
15:48 82.3 °F 46.9 °F 30.06 in NW 1.2 mph 1.2 mph 29 % 0.00 in
15:53 82.2 °F 46.8 °F 30.06 in NW 2.3 mph 2.3 mph 29 % 0.00 in
15:58 82.0 °F 46.6 °F 30.06 in NW 2.3 mph 2.3 mph 29 % 0.00 in
16:03 81.9 °F 44.6 °F 30.06 in WNW 2.3 mph 2.3 mph 27 % 0.00 in
16:08 81.8 °F 44.5 °F 30.06 in NNE 3.5 mph 3.5 mph 27 % 0.00 in
16:13 81.6 °F 45.3 °F 30.06 in NNE 2.3 mph 2.3 mph 28 % 0.00 in
16:14 81.6 °F 45.3 °F 30.06 in North 2.3 mph 2.3 mph 28 % 0.00 in
16:19 81.6 °F 45.3 °F 30.06 in NW 2.3 mph 2.3 mph 28 % 0.00 in
16:24 81.4 °F 45.2 °F 30.06 in West 2.0 mph 2.0 mph 28 % 0.00 in
16:29 81.4 °F 45.2 °F 30.06 in NW 2.3 mph 2.3 mph 28 % 0.00 in
16:34 81.3 °F 45.1 °F 30.06 in NW 1.2 mph 1.2 mph 28 % 0.00 in
16:35 81.3 °F 45.1 °F 30.05 in NW 1.2 mph 1.2 mph 28 % 0.00 in
16:40 81.2 °F 45.0 °F 30.05 in WNW 2.3 mph 2.3 mph 28 % 0.00 in
16:45 81.1 °F 45.8 °F 30.05 in WNW 1.2 mph 1.2 mph 29 % 0.00 in
16:50 80.9 °F 46.6 °F 30.06 in Calm     30 % 0.00 in
16:55 80.7 °F 44.6 °F 30.05 in NW 1.2 mph 1.2 mph 28 % 0.00 in
17:00 80.5 °F 45.3 °F 30.05 in NW 1.2 mph 1.2 mph 29 % 0.00 in
17:05 80.3 °F 46.0 °F 30.05 in West 1.2 mph 1.2 mph 30 % 0.00 in
17:10 80.0 °F 46.6 °F 30.05 in West 1.2 mph 1.2 mph 31 % 0.00 in
17:15 79.8 °F 45.6 °F 30.05 in WNW 2.3 mph 2.3 mph 30 % 0.00 in
17:16 79.7 °F 46.4 °F 30.05 in WNW 1.2 mph   31 % 0.00 in
17:21 79.4 °F 45.3 °F 30.05 in WNW 2.3 mph 2.3 mph 30 % 0.00 in
17:26 79.2 °F 45.9 °F 30.05 in WNW 1.2 mph   31 % 0.00 in
17:31 78.8 °F 46.4 °F 30.05 in WNW 1.2 mph 1.2 mph 32 % 0.00 in
17:36 78.4 °F 46.1 °F 30.05 in Calm   0.1 mph 32 % 0.00 in
17:41 78.1 °F 46.6 °F 30.05 in Calm     33 % 0.00 in
17:46 77.8 °F 46.4 °F 30.05 in Calm     33 % 0.00 in
17:51 77.4 °F 46.8 °F 30.05 in Calm     34 % 0.00 in
17:56 76.8 °F 47.8 °F 30.05 in Calm     36 % 0.00 in
18:01 75.9 °F 49.2 °F 30.05 in Calm     39 % 0.00 in
18:06 74.9 °F 49.6 °F 30.05 in Calm     41 % 0.00 in
18:11 73.8 °F 49.9 °F 30.05 in Calm     43 % 0.00 in
18:12 73.6 °F 50.3 °F 30.05 in Calm     44 % 0.00 in
18:17 72.5 °F 49.9 °F 30.05 in Calm     45 % 0.00 in
18:22 71.4 °F 50.1 °F 30.05 in Calm     47 % 0.00 in
18:27 70.4 °F 50.9 °F 30.05 in Calm     50 % 0.00 in
18:32 69.6 °F 51.2 °F 30.05 in Calm     52 % 0.00 in
18:37 69.0 °F 50.6 °F 30.05 in Calm     52 % 0.00 in
18:38 69.0 °F 50.1 °F 30.05 in Calm     51 % 0.00 in
18:43 68.6 °F 50.3 °F 30.05 in Calm     52 % 0.00 in
18:48 68.1 °F 50.3 °F 30.06 in Calm     53 % 0.00 in
18:53 67.4 °F 49.7 °F 30.06 in Calm     53 % 0.00 in
18:58 66.7 °F 50.5 °F 30.06 in Calm     56 % 0.00 in
19:03 66.2 °F 50.5 °F 30.06 in Calm     57 % 0.00 in
19:08 65.6 °F 50.4 °F 30.06 in Calm     58 % 0.00 in
19:13 65.0 °F 49.4 °F 30.06 in Calm     57 % 0.00 in
19:18 65.1 °F 49.0 °F 30.06 in Calm     56 % 0.00 in
19:23 65.0 °F 48.9 °F 30.07 in Calm     56 % 0.00 in
19:28 64.9 °F 49.8 °F 30.07 in Calm     58 % 0.00 in
19:33 64.7 °F 49.6 °F 30.07 in Calm     58 % 0.00 in
19:38 64.2 °F 50.0 °F 30.07 in Calm     60 % 0.00 in
19:43 63.7 °F 51.3 °F 30.07 in Calm     64 % 0.00 in
19:48 63.1 °F 51.6 °F 30.07 in Calm     66 % 0.00 in
19:53 62.5 °F 51.0 °F 30.07 in Calm     66 % 0.00 in
19:58 61.9 °F 50.8 °F 30.08 in Calm     67 % 0.00 in
20:03 61.4 °F 50.3 °F 30.08 in Calm     67 % 0.00 in
20:08 60.9 °F 50.3 °F 30.08 in Calm     68 % 0.00 in
20:13 60.5 °F 49.9 °F 30.08 in Calm     68 % 0.00 in
20:19 60.4 °F 50.6 °F 30.08 in Calm     70 % 0.00 in
20:24 60.1 °F 50.3 °F 30.08 in Calm     70 % 0.00 in
20:29 60.0 °F 50.6 °F 30.08 in Calm     71 % 0.00 in
20:34 59.8 °F 50.8 °F 30.08 in Calm     72 % 0.00 in
20:39 59.6 °F 50.9 °F 30.08 in Calm     73 % 0.00 in
20:44 59.3 °F 50.6 °F 30.08 in Calm     73 % 0.00 in
20:49 59.2 °F 50.9 °F 30.09 in Calm     74 % 0.00 in
20:54 59.0 °F 50.7 °F 30.09 in Calm     74 % 0.00 in
20:59 58.6 °F 50.7 °F 30.09 in Calm     75 % 0.00 in
21:04 58.2 °F 50.0 °F 30.09 in Calm     74 % 0.00 in
21:09 58.2 °F 50.3 °F 30.09 in Calm     75 % 0.00 in
21:14 58.2 °F 50.3 °F 30.10 in Calm     75 % 0.00 in
21:19 57.9 °F 49.7 °F 30.10 in Calm     74 % 0.00 in
21:24 57.7 °F 49.8 °F 30.10 in Calm     75 % 0.00 in
21:29 57.5 °F 49.6 °F 30.10 in Calm     75 % 0.00 in
21:34 57.4 °F 49.5 °F 30.10 in Calm     75 % 0.00 in
21:39 57.3 °F 49.4 °F 30.10 in Calm     75 % 0.00 in
21:44 57.2 °F 49.0 °F 30.10 in Calm     74 % 0.00 in
21:49 57.7 °F 49.1 °F 30.10 in Calm     73 % 0.00 in
21:54 57.7 °F 49.5 °F 30.11 in Calm     74 % 0.00 in
21:59 57.4 °F 48.8 °F 30.11 in Calm     73 % 0.00 in
22:04 57.0 °F 49.2 °F 30.11 in Calm     75 % 0.00 in
22:09 56.7 °F 49.2 °F 30.11 in Calm     76 % 0.00 in
22:14 56.5 °F 48.7 °F 30.11 in Calm     75 % 0.00 in
22:19 56.2 °F 49.1 °F 30.11 in Calm     77 % 0.00 in
22:24 56.0 °F 48.9 °F 30.11 in Calm     77 % 0.00 in
22:29 55.9 °F 49.1 °F 30.11 in Calm     78 % 0.00 in
22:34 55.8 °F 49.0 °F 30.11 in Calm     78 % 0.00 in
22:39 55.7 °F 48.6 °F 30.11 in Calm     77 % 0.00 in
22:44 55.8 °F 48.7 °F 30.11 in Calm     77 % 0.00 in
22:49 55.6 °F 48.5 °F 30.11 in Calm     77 % 0.00 in
22:54 55.6 °F 48.8 °F 30.11 in Calm     78 % 0.00 in
22:59 55.4 °F 49.0 °F 30.11 in Calm     79 % 0.00 in
23:04 55.0 °F 48.3 °F 30.12 in Calm     78 % 0.00 in
23:09 54.5 °F 48.5 °F 30.12 in Calm     80 % 0.00 in
23:14 54.1 °F 48.4 °F 30.12 in Calm     81 % 0.00 in
23:19 53.7 °F 48.3 °F 30.12 in Calm     82 % 0.00 in
23:24 53.4 °F 47.7 °F 30.12 in Calm     81 % 0.00 in
23:29 53.1 °F 48.1 °F 30.12 in Calm     83 % 0.00 in
23:34 53.0 °F 48.0 °F 30.12 in Calm     83 % 0.00 in
23:39 53.0 °F 48.3 °F 30.12 in Calm     84 % 0.00 in
23:44 53.1 °F 48.4 °F 30.12 in Calm     84 % 0.00 in
23:49 53.2 °F 48.2 °F 30.12 in Calm     83 % 0.00 in
23:54 53.0 °F 48.0 °F 30.12 in Calm     83 % 0.00 in
Park Place, Exeter, Tulare County, California, USA
Compliments of Weather Underground - 2.75 mb